DateTimeUTC,F1_A11,F1_S11,BsB_S11,BsG_S11,BsR_S11,BbsB_S11,BbsG_S11,BbsR_S11,BaB_A11,BaG_A11,BaR_A11,Tu_S11,T_S11,Uu_S11,U_S11,P_S11,T1_A11
2021-02-14T02:00:00Z,00000200,21000000,,,,,,,0000.34,0000.10,-000.02,16.7,23.4,,00.0,0655.8,31.0
2021-02-14T02:01:00Z,00000200,21000000,,,,,,,-000.37,0000.32,0000.01,16.7,23.4,,00.0,0655.8,31.0
2021-02-14T02:02:00Z,00000200,21000000,,,,,,,0000.30,0000.10,-000.06,16.7,23.4,,00.0,0655.8,31.0
2021-02-14T02:03:00Z,00000200,61000000,,,,,,,0000.08,0000.04,0000.22,16.7,23.4,,00.0,0655.8,31.0
2021-02-14T02:04:00Z,00000200,41000000,0000.29,0000.38,0000.22,0000.12,0000.15,0000.17,0000.26,-000.08,0000.11,16.8,23.2,00.1,00.1,0656.7,31.0
2021-02-14T02:05:00Z,00000200,01000000,0001.26,0000.26,0000.29,0000.11,-000.28,0000.08,0000.39,0000.29,0000.38,16.9,23.1,00.3,00.2,0656.7,31.0
2021-02-14T02:06:00Z,00000200,01000000,0000.33,0000.25,0000.12,0000.54,-000.02,0000.07,0000.24,0000.40,0000.04,17.0,23.1,00.2,00.2,0656.7,31.0
2021-02-14T02:07:00Z,00000200,01000000,-000.29,0000.27,-000.08,-000.14,-000.18,-000.01,-000.18,0000.19,0000.05,17.1,23.1,00.3,00.2,0656.7,31.0
2021-02-14T02:08:00Z,00000200,01000000,0000.99,0000.26,0000.05,0000.15,-000.17,0000.34,0000.28,0000.05,0000.32,17.1,23.2,00.3,00.2,0656.7,31.0
2021-02-14T02:09:00Z,00000200,01000000,0001.17,0000.56,0000.03,0000.28,-000.06,-000.18,0000.10,0000.42,-000.16,17.2,23.2,00.2,00.2,0656.7,31.0
2021-02-14T02:10:00Z,00000200,01000000,0000.24,0000.28,0000.08,0000.24,0000.06,0000.21,-000.00,-000.10,0000.24,17.2,23.2,00.3,00.2,0656.7,31.0
2021-02-14T02:11:00Z,00000200,01000000,0000.55,0000.19,0000.39,0000.26,-000.03,0000.05,0000.34,0000.06,0000.01,17.2,23.2,00.3,00.2,0656.7,31.0
2021-02-14T02:12:00Z,00000200,01000000,0000.53,0000.49,0000.38,-000.74,-000.16,0000.06,0000.11,0000.32,0000.31,17.2,23.2,00.3,00.2,0656.7,31.0
2021-02-14T02:13:00Z,00000200,01000000,0000.92,0000.65,0000.37,-000.23,-000.18,-000.09,-000.05,-000.27,-000.44,17.2,23.2,00.3,00.2,0656.7,31.0
2021-02-14T02:14:00Z,00000200,01000000,0001.17,0000.40,0000.29,0000.20,-000.08,0000.04,0000.17,0000.32,0000.27,17.1,23.2,00.3,00.2,0656.7,31.0
2021-02-14T02:15:00Z,00000200,01000000,0001.28,0000.73,0000.31,0000.28,-000.19,0000.03,0000.02,0000.09,0000.07,17.1,23.2,00.3,00.2,0656.6,31.0
2021-02-14T02:16:00Z,00000200,01000000,0000.73,-000.03,0000.28,0000.09,0000.03,-000.34,0000.53,0000.56,0000.38,17.1,23.2,00.3,00.2,0656.6,31.0
2021-02-14T02:17:00Z,00000200,01000000,0001.22,0000.17,0000.12,0000.15,-000.03,-000.04,0000.06,-000.37,-000.21,17.1,23.2,00.4,00.2,0656.6,31.0
2021-02-14T02:18:00Z,00000200,01000000,0001.06,0000.30,0000.43,0000.03,-000.00,0000.05,-000.08,0000.40,0000.44,17.1,23.2,00.3,00.2,0656.6,31.0
2021-02-14T02:19:00Z,00000200,01000000,0000.78,0000.38,0000.09,0000.23,-000.05,-000.19,0000.50,0000.25,0000.08,17.1,23.2,00.4,00.3,0656.6,31.0
2021-02-14T02:20:00Z,00000200,01000000,0000.41,0000.36,0000.43,0000.46,0000.28,-000.02,0000.37,0000.02,0000.08,17.1,23.2,00.4,00.3,0656.6,31.0
2021-02-14T02:21:00Z,00000200,01000000,0000.29,0000.03,-000.11,0000.56,-000.19,0000.08,-000.13,0000.15,-000.03,17.1,23.1,00.4,00.3,0656.6,31.0
2021-02-14T02:22:00Z,00000200,01000000,0000.52,0000.39,0000.03,-000.28,0000.05,0000.21,0000.10,-000.14,0000.06,17.0,23.1,00.4,00.3,0656.6,31.0
2021-02-14T02:23:00Z,00000200,01000000,0000.61,0000.32,0000.25,-000.55,0000.04,0000.11,0000.09,0000.37,0000.19,17.1,23.2,00.4,00.3,0656.6,31.0
2021-02-14T02:24:00Z,00000200,01000000,0000.43,0000.12,0000.31,0000.03,0000.15,0000.19,0000.34,0000.10,0000.08,17.0,23.1,00.5,00.3,0656.6,31.0
2021-02-14T02:25:00Z,00000200,01000000,0001.02,-000.07,-000.11,0000.49,-000.33,0000.14,0000.15,0000.26,0000.16,17.0,23.1,00.4,00.3,0656.5,31.0
2021-02-14T02:26:00Z,00000200,01000000,0000.52,0000.64,0000.46,-000.21,0000.13,-000.10,-000.02,0000.12,0000.03,17.0,23.1,00.5,00.3,0656.5,31.0
2021-02-14T02:27:00Z,00000200,01000000,0000.83,0000.40,0000.42,-000.44,-000.02,0000.11,0000.15,-000.11,-000.04,17.1,23.1,00.6,00.4,0656.5,31.0
2021-02-14T02:28:00Z,00000200,01000000,0000.80,0000.52,-000.01,0000.53,-000.06,0000.03,0000.05,0000.20,-000.03,17.0,23.1,00.5,00.3,0656.5,31.0
2021-02-14T02:29:00Z,00000200,01000000,0000.19,0000.37,0000.47,0000.16,-000.14,0000.17,0000.25,0000.11,0000.17,17.0,23.1,00.5,00.4,0656.5,31.0
2021-02-14T02:30:00Z,00000200,01000000,0000.78,0000.44,0000.35,0000.25,0000.05,0000.32,-000.02,0000.19,0000.35,17.0,23.1,00.5,00.4,0656.5,31.0
2021-02-14T02:31:00Z,00000200,01000000,0000.58,0000.37,0000.28,0000.14,0000.09,0000.07,0000.13,0000.10,-000.05,17.0,23.1,00.7,00.5,0656.5,31.0
2021-02-14T02:32:00Z,00000200,01000000,0000.76,0000.26,0000.15,-000.61,0000.31,-000.19,0000.33,0000.21,0000.28,17.0,23.1,00.6,00.4,0656.5,31.0
2021-02-14T02:33:00Z,00000200,01000000,0001.12,0000.47,-000.01,0000.01,0000.04,0000.08,0000.55,0000.12,0000.20,17.0,23.1,00.8,00.5,0656.5,31.0
2021-02-14T02:34:00Z,00000200,01000000,0000.83,0000.20,-000.02,0000.21,0000.02,-000.17,0000.11,0000.02,0000.19,17.0,23.1,00.7,00.5,0656.6,31.0
2021-02-14T02:35:00Z,00000200,01000000,0001.51,0000.36,0000.17,0000.54,0000.09,0000.04,0000.20,0000.25,0000.07,17.0,23.1,00.8,00.6,0656.6,31.0
2021-02-14T02:36:00Z,00000200,01000000,0000.62,0000.50,0000.12,-000.04,0000.17,0000.04,0000.75,0000.68,0000.31,17.1,23.1,00.8,00.6,0656.6,31.0
2021-02-14T02:37:00Z,00000200,01000000,0000.92,0000.36,-000.06,-000.04,-000.21,0000.21,-000.36,-000.07,0000.12,17.1,23.1,00.8,00.6,0656.5,31.0
2021-02-14T02:38:00Z,00000200,01000000,0000.58,0000.31,0000.36,0000.47,-000.08,0000.28,0000.23,0000.01,-000.05,17.2,23.1,00.9,00.6,0656.5,31.0
2021-02-14T02:39:00Z,00000200,01000000,0000.70,0000.08,0000.23,0000.34,-000.08,0000.15,-000.20,0000.25,0000.38,17.2,23.2,00.8,00.6,0656.5,31.0
2021-02-14T02:40:00Z,00000200,01000000,0000.76,0000.54,-000.10,-000.31,0000.11,-000.08,0000.08,0000.24,-000.22,17.3,23.2,00.9,00.6,0656.5,31.0
2021-02-14T02:41:00Z,00000200,01000000,0001.03,0000.48,0000.16,0000.33,-000.12,0000.22,0000.28,-000.36,-000.11,17.3,23.2,00.8,00.6,0656.5,31.0
2021-02-14T02:42:00Z,00000200,01000000,0000.92,0000.20,0000.05,-000.13,-000.02,0000.08,0000.03,0000.30,0000.34,17.2,23.2,00.8,00.6,0656.5,31.0
2021-02-14T02:43:00Z,00000200,01000000,0000.44,0000.68,0000.01,-000.62,-000.02,-000.11,-000.07,-000.02,-000.07,17.2,23.2,00.9,00.6,0656.5,31.0
2021-02-14T02:44:00Z,00000200,01000000,0000.64,0000.07,0000.05,-000.27,-000.02,0000.07,0000.20,0000.25,-000.01,17.2,23.2,00.8,00.5,0656.5,31.0
2021-02-14T02:45:00Z,00000200,01000000,0000.19,0000.21,0000.13,-000.18,0000.08,0000.06,0000.31,-000.12,0000.02,17.2,23.2,00.9,00.6,0656.5,31.0
2021-02-14T02:46:00Z,00000200,01000000,0000.93,0000.25,0000.37,0000.18,0000.02,-000.06,-000.20,0000.14,0000.19,17.2,23.2,00.9,00.6,0656.5,31.0
2021-02-14T02:47:00Z,00000200,01000000,0000.27,0000.45,0000.30,0000.65,-000.07,0000.05,0000.35,0000.16,0000.36,17.2,23.2,00.9,00.6,0656.5,31.0
2021-02-14T02:48:00Z,00000200,01000000,0001.03,0000.49,-000.04,0000.43,0000.00,0000.19,0000.05,0000.04,-000.29,17.2,23.2,00.8,00.6,0656.5,31.0
2021-02-14T02:49:00Z,00000200,01000000,0000.25,0000.42,0000.31,0000.31,-000.08,0000.44,0000.18,0000.02,0000.32,17.2,23.2,01.0,00.7,0656.5,31.0
2021-02-14T02:50:00Z,00000200,01000000,0000.83,0000.50,0000.29,0000.54,0000.14,0000.08,0000.20,0000.55,0000.24,17.2,23.2,00.9,00.6,0656.5,31.0
2021-02-14T02:51:00Z,00000200,01000000,0001.25,0000.49,-000.09,0000.12,-000.03,-000.13,0000.08,-000.14,-000.30,17.2,23.2,01.0,00.7,0656.5,31.0
2021-02-14T02:52:00Z,00000200,01000000,0000.30,0000.42,0000.14,-000.13,0000.16,-000.07,-000.04,0000.26,0000.25,17.2,23.2,00.9,00.6,0656.4,31.0
2021-02-14T02:53:00Z,00000200,01000000,0000.45,-000.01,0000.13,-000.00,-000.09,0000.02,0000.23,0000.13,-000.06,17.1,23.1,00.9,00.7,0656.5,31.0
2021-02-14T02:54:00Z,00000200,01000000,0000.68,0000.44,0000.07,-000.15,0000.20,0000.07,0000.22,-000.17,0000.22,17.2,23.1,01.0,00.7,0656.5,31.0
2021-02-14T02:55:00Z,00000200,01000000,0000.61,0000.51,-000.03,0000.07,-000.19,0000.24,0000.05,0000.10,-000.14,17.1,23.1,00.9,00.6,0656.5,31.0
2021-02-14T02:56:00Z,00000200,01000000,0000.27,0000.43,0000.21,-000.45,-000.02,0000.06,-000.00,0000.31,0000.26,17.1,23.1,00.9,00.6,0656.4,31.0
2021-02-14T02:57:00Z,00000200,41000000,,,,,,,-000.43,-000.47,-000.66,17.2,23.1,00.6,00.4,0656.4,31.0
2021-02-14T02:58:00Z,00000200,61000000,,,,,,,0000.12,-000.01,0000.35,16.9,23.3,00.6,00.4,0655.5,31.0
2021-02-14T02:59:00Z,00000200,21000000,,,,,,,-000.06,0000.37,0000.18,16.9,23.4,00.6,00.4,0655.5,31.0
